Starlink 30349

operational
NORAD ID: 57713 Int'l Des: 2023-129 Owner: SPXS Country: US Constellation: starlink
LEOCIRCULAR

Über Starlink 30349

Beschreibung wird geladen...

Live-Position

3D-Globus wird geladen...

Nächste Überflüge

Höhenverlauf

Altitude vs Time

uPlot chart will show altitude changes over time

Zweizeiliger Elementsatz

1 57713U 23129R 25305.50947872 -.00000393 00000-0 -13998-4 0 9998
2 57713 43.0040 96.7147 0001358 268.0570 92.0116 15.02531272121231
Epoch: 1. Nov. 2025 • Age: 26 hours

Aktueller Status

Höhe 561.7 km
Geschwindigkeit 7.59 km/s
Subsatellitenpunkt 36.42°N, 37.47°W
Startdatum 27. Aug. 2023
Alter 2.1 years
Typ internet

Technische Details

Klassifizierung Payload
Masse 730.00 kg
Trockenmasse 700.00 kg
Gesamtmasse 730.00 kg
Länge 0.30 m
Durchmesser 4.10 m
Spannweite 29.00 m
Form Box + pan
Hersteller SPXS
Bus-Typ Starlink V2M
Phasenstatus In Orbit
Besitzer/Staat SPXS/US

Große Konstellationen

Loading constellations...